Pittsburgh, PA

8:46 PM EST on February 27, 2017 (GMT -0500)
Allegheny County

Weather History for KAGC - September, 2013

Change the Weather History Date:

Friday, September 20, 2013

  Actual Average Record
Temperature  
Mean Temperature 68 °F -  
Max Temperature 79 °F 76 °F 87 °F (2002)
Min Temperature 59 °F 53 °F 43 °F (1991)
Cooling Degree Days 4    
Growing Degree Days 18 (Base 50)    
Moisture  
Dew Point 61 °F    
Average Humidity 88    
Maximum Humidity 100    
Minimum Humidity 64    
Precipitation  
Precipitation 0.00 in - - ()
Sea Level Pressure  
Sea Level Pressure 30.00 in    
Wind  
Wind Speed 6 mph (SSE)    
Max Wind Speed 9 mph    
Max Gust Speed -    
Visibility 5 miles    
Events Fog    
Averages and records for this station are not official NWS values.
T = Trace of Precipitation, MM = Missing Value Source: NWS Daily Summary

Daily Weather History Graph

Daily Weather History Graph

Search for Another Location

Airport or City:

Trip Planner

Search our weather history database for the weather conditions in past years. The results will help you decide how hot, cold, wet, or windy it might be!

Date:

Astronomy

Sep. 20, 2013 Rise Set
Actual Time 7:05 AM EDT 7:19 PM EDT
Civil Twilight 6:38 AM EDT 7:46 PM EDT
Nautical Twilight 6:06 AM EDT 8:18 PM EDT
Astronomical Twilight 5:33 AM EDT 8:51 PM EDT
Moon 7:52 PM EDT (9/20) 8:18 AM EDT (9/20)
Length of Visible Light 13h 08m
Length of Day
12h 14m
Full, 98% of the Moon is Illuminated
Sep 20
Full
Sep 26
Last Quarter
Oct 4
New
Oct 11
First Quarter
Oct 18
Full

Hourly Weather History & Observations

Time (EDT) Temp. Dew Point Humidity Pressure Visibility Wind Dir Wind Speed Gust Speed Precip Events Conditions
12:53 AM 61.0 °F 57.9 °F 90% 30.06 in 4.0 mi South 4.6 mph - N/A   Clear
1:53 AM 60.1 °F 57.9 °F 93% 30.05 in 3.0 mi SSE 5.8 mph - N/A   Clear
2:11 AM 59.0 °F 57.2 °F 94% 30.05 in 2.0 mi SE 5.8 mph - N/A   Clear
2:21 AM 59.0 °F 57.2 °F 94% 30.05 in 1.2 mi SSE 5.8 mph - N/A   Partly Cloudy
2:23 AM 59.0 °F 57.2 °F 94% 30.05 in 0.8 mi SSE 5.8 mph - N/A   Mist
2:27 AM 59.0 °F 57.2 °F 94% 30.05 in 0.2 mi SE 4.6 mph - N/A Fog Fog
2:38 AM 59.0 °F 57.2 °F 94% 30.05 in 1.0 mi SE 4.6 mph - N/A   Mist
2:45 AM 59.0 °F 57.2 °F 94% 30.05 in 1.8 mi SE 4.6 mph - N/A   Partly Cloudy
2:53 AM 59.0 °F 57.9 °F 96% 30.05 in 4.0 mi SE 3.5 mph - N/A   Partly Cloudy
3:00 AM 59.0 °F 57.2 °F 94% 30.05 in 2.0 mi SSE 5.8 mph - N/A   Clear
3:22 AM 60.8 °F 59.0 °F 94% 30.05 in 3.0 mi South 6.9 mph - N/A   Mostly Cloudy
3:43 AM 60.8 °F 59.0 °F 94% 30.05 in 2.5 mi South 5.8 mph - N/A   Overcast
3:50 AM 60.8 °F 59.0 °F 94% 30.05 in 3.0 mi South 5.8 mph - N/A   Overcast
3:53 AM 61.0 °F 59.0 °F 93% 30.04 in 3.0 mi South 5.8 mph - N/A   Overcast
4:35 AM 60.8 °F 59.0 °F 94% 30.04 in 2.5 mi South 4.6 mph - N/A   Overcast
4:49 AM 60.8 °F 59.0 °F 94% 30.03 in 3.0 mi SSE 5.8 mph - N/A   Overcast
4:53 AM 60.1 °F 59.0 °F 96% 30.03 in 2.5 mi SSE 5.8 mph - N/A   Overcast
5:09 AM 60.8 °F 59.0 °F 94% 30.03 in 2.5 mi SSE 5.8 mph - N/A   Overcast
5:20 AM 60.8 °F 59.0 °F 94% 30.03 in 2.5 mi SSE 5.8 mph - N/A   Overcast
5:29 AM 60.8 °F 59.0 °F 94% 30.03 in 3.0 mi SSE 5.8 mph - N/A   Overcast
5:53 AM 60.1 °F 59.0 °F 96% 30.03 in 2.5 mi SSE 5.8 mph - N/A   Overcast
6:32 AM 60.8 °F 59.0 °F 94% 30.04 in 3.0 mi SSE 4.6 mph - N/A   Overcast
6:45 AM 60.8 °F 59.0 °F 94% 30.03 in 3.0 mi SSE 4.6 mph - N/A   Overcast
6:53 AM 61.0 °F 59.0 °F 93% 30.04 in 2.0 mi South 4.6 mph - N/A   Overcast
7:19 AM 60.8 °F 60.8 °F 100% 30.04 in 2.0 mi SSE 5.8 mph - N/A   Overcast
7:34 AM 60.8 °F 59.0 °F 94% 30.03 in 2.0 mi SE 4.6 mph - N/A   Scattered Clouds
7:53 AM 62.1 °F 60.1 °F 93% 30.03 in 2.0 mi SE 4.6 mph - N/A   Mostly Cloudy
8:44 AM 64.4 °F 60.8 °F 88% 30.03 in 3.0 mi SSE 4.6 mph - N/A   Overcast
8:53 AM 64.0 °F 62.1 °F 93% 30.03 in 3.0 mi South 5.8 mph - N/A   Overcast
9:08 AM 66.2 °F 62.6 °F 88% 30.02 in 4.0 mi South 8.1 mph - N/A   Mostly Cloudy
9:44 AM 69.8 °F 64.4 °F 83% 30.02 in 5.0 mi South 8.1 mph - N/A   Haze
9:51 AM 69.8 °F 64.4 °F 83% 30.02 in 6.0 mi South 8.1 mph - N/A   Haze
9:53 AM 69.1 °F 64.0 °F 84% 30.01 in 6.0 mi South 9.2 mph - N/A   Haze
10:53 AM 73.0 °F 64.9 °F 76% 30.01 in 8.0 mi South 5.8 mph - N/A   Scattered Clouds
11:53 AM 75.9 °F 66.0 °F 71% 30.00 in 10.0 mi South 9.2 mph - N/A   Scattered Clouds
12:53 PM 77.0 °F 66.0 °F 69% 29.99 in 10.0 mi South 8.1 mph - N/A   Scattered Clouds
1:53 PM 75.9 °F 66.0 °F 71% 29.97 in 10.0 mi SW 9.2 mph - N/A   Mostly Cloudy
2:53 PM 78.1 °F 64.9 °F 64% 29.95 in 10.0 mi SSW 8.1 mph - N/A   Clear
3:53 PM 78.1 °F 66.0 °F 66% 29.93 in 10.0 mi SSE 9.2 mph - N/A   Partly Cloudy
4:53 PM 78.1 °F 66.0 °F 66% 29.91 in 10.0 mi South 9.2 mph - N/A   Partly Cloudy
5:53 PM 77.0 °F 66.0 °F 69% 29.89 in 10.0 mi South 8.1 mph - N/A   Clear
6:53 PM 73.9 °F 66.9 °F 79% 29.89 in 10.0 mi South 8.1 mph - N/A   Clear
7:53 PM 72.0 °F 66.9 °F 84% 29.88 in 10.0 mi South 8.1 mph - N/A   Clear
8:53 PM 71.1 °F 66.9 °F 87% 29.89 in 9.0 mi SSW 6.9 mph - N/A   Clear
9:53 PM 70.0 °F 66.9 °F 90% 29.88 in 8.0 mi SSE 5.8 mph - N/A   Clear
10:53 PM 69.1 °F 66.9 °F 93% 29.86 in 6.0 mi SSE 5.8 mph - N/A   Clear
11:53 PM 69.1 °F 66.9 °F 93% 29.85 in 5.0 mi SSE 5.8 mph - N/A   Clear